sat.trackr.live / text

‹ back to catalog

STARLINK-5836

NORAD 56386 · 2023-061N

PAYLOAD ACTIVE UNKNOWN

§ Identity

Operator
Country
US
Launch date
2023-05-04
Launch site
AFETR
Launch vehicle
Mass (kg)
RCS (m²)

Purposes: comms

External: N2YO · Heavens-Above · Gunter

§ Orbital elements

Epoch: 2026-09-20T03:05:31.607520Z

Period
94.27 min
Inclination
43.0003°
Eccentricity
0.0000950
Mean motion
15.27575138 rev/d
Perigee alt
482.4 km
Apogee alt
483.7 km
Semi-major
6,861.2 km
B*
-2.2957e-6
RAAN
180.0585°
Arg perigee
237.8667°
Mean anomaly
122.2093°
Rev number
18,648

§ Raw data

STARLINK-58361 56386U 23061N   26263.12883805 -.00000325  00000+0 -22957-5 0  99952 56386  43.0003 180.0585 0000950 237.8667 122.2093 15.27575138186480

JSON: /api/v1/satellites/56386 · /tle

For live sub-satellite position, see the globe view (requires WebGL).

§ Visibility from observer

Set your observer location to see the next 7 days of passes ≥ 10°. The values pass through the URL so the page stays shareable.

No JS? Fill the form by hand. The geolocation button needs JavaScript.